TimeMST,TemperatureF,Dew PointF,Humidity,Sea Level PressureIn,VisibilityMPH,Wind Direction,Wind SpeedMPH,Gust SpeedMPH,PrecipitationIn,Events,Conditions,WindDirDegrees,DateUTC
12:58 AM,14.7,9.5,80,29.96,10.0,Variable,2.3,25.3,N/A,,Clear,0,2013-02-23 07:58:00
1:58 AM,11.8,9.5,90,29.95,5.0,SE,4.6,-,N/A,,Scattered Clouds,140,2013-02-23 08:58:00
2:02 AM,12.2,10.4,92,29.77,1.0,SE,6.9,-,N/A,,Light Freezing Drizzle,140,2013-02-23 09:02:00
2:12 AM,12.2,8.6,85,29.78,1.5,Variable,5.8,-,N/A,,Light Freezing Drizzle,0,2013-02-23 09:12:00
2:16 AM,12.2,8.6,85,29.77,2.5,SE,3.5,-,N/A,,Mostly Cloudy,130,2013-02-23 09:16:00
2:21 AM,12.2,8.6,85,29.77,4.0,ESE,3.5,-,N/A,,Overcast,120,2013-02-23 09:21:00
2:26 AM,12.2,10.4,92,29.76,6.0,Variable,5.8,-,N/A,,Overcast,0,2013-02-23 09:26:00
2:36 AM,12.2,10.4,92,29.75,4.0,ESE,3.5,-,N/A,,Overcast,120,2013-02-23 09:36:00
2:41 AM,12.2,8.6,85,29.75,1.8,Variable,4.6,-,N/A,,Mostly Cloudy,0,2013-02-23 09:41:00
2:46 AM,12.2,10.4,92,29.75,0.5,Variable,2.3,-,N/A,Fog,Light Freezing Fog,0,2013-02-23 09:46:00
2:48 AM,12.2,8.6,85,29.75,0.5,Variable,3.5,-,N/A,Fog,Light Freezing Drizzle,0,2013-02-23 09:48:00
2:58 AM,11.1,8.1,87,29.75,1.2,NNE,5.8,-,0.00,,Light Freezing Drizzle,20,2013-02-23 09:58:00
3:03 AM,8.6,5.0,85,29.75,4.0,Variable,5.8,-,N/A,,Light Freezing Drizzle,0,2013-02-23 10:03:00
3:08 AM,6.8,3.2,85,29.75,10.0,NE,5.8,-,N/A,,Light Freezing Drizzle,40,2013-02-23 10:08:00
3:13 AM,6.8,3.2,85,29.75,10.0,Variable,3.5,-,N/A,,Partly Cloudy,0,2013-02-23 10:13:00
3:58 AM,9.9,0.5,66,29.91,10.0,East,8.1,-,0.00,,Clear,80,2013-02-23 10:58:00
4:58 AM,10.9,-0.4,60,29.91,10.0,NNE,5.8,-,N/A,,Clear,30,2013-02-23 11:58:00
5:58 AM,14.7,1.4,56,29.89,10.0,ENE,3.5,-,N/A,,Clear,70,2013-02-23 12:58:00
6:58 AM,13.5,1.2,58,29.89,10.0,ESE,2.3,-,N/A,,Clear,110,2013-02-23 13:58:00
7:58 AM,12.0,1.8,64,29.91,10.0,NE,4.6,-,N/A,,Clear,40,2013-02-23 14:58:00
8:58 AM,21.4,10.4,63,29.86,10.0,WNW,2.3,-,N/A,,Clear,290,2013-02-23 15:58:00
9:58 AM,32.4,5.0,32,29.83,10.0,SSW,2.3,-,N/A,,Clear,200,2013-02-23 16:58:00
10:58 AM,34.9,7.5,32,29.77,10.0,South,8.1,-,N/A,,Clear,180,2013-02-23 17:58:00
11:58 AM,36.9,6.4,28,29.78,10.0,South,9.2,-,N/A,,Clear,170,2013-02-23 18:58:00
12:58 PM,38.3,6.3,26,29.75,10.0,SE,5.8,-,N/A,,Clear,130,2013-02-23 19:58:00
1:58 PM,38.3,9.7,31,29.72,10.0,SSE,11.5,-,N/A,,Clear,150,2013-02-23 20:58:00
2:58 PM,37.0,13.8,39,29.70,10.0,SSE,11.5,-,N/A,,Partly Cloudy,150,2013-02-23 21:58:00
3:58 PM,36.7,15.8,43,29.71,10.0,SE,8.1,-,N/A,,Clear,140,2013-02-23 22:58:00
4:58 PM,34.9,18.7,52,29.70,10.0,SE,4.6,-,N/A,,Clear,140,2013-02-23 23:58:00
5:58 PM,32.2,16.7,53,29.70,10.0,WNW,2.3,-,N/A,,Clear,290,2013-02-24 00:58:00
6:58 PM,30.4,19.2,63,29.74,10.0,NNE,1.2,-,N/A,,Clear,20,2013-02-24 01:58:00
7:58 PM,26.1,17.6,70,29.77,10.0,North,4.6,-,N/A,,Partly Cloudy,10,2013-02-24 02:58:00
8:53 PM,33.8,24.8,70,29.63,10.0,Variable,5.8,-,N/A,,Partly Cloudy,0,2013-02-24 03:53:00
8:58 PM,33.8,25.3,71,29.70,10.0,WNW,4.6,-,0.00,,Partly Cloudy,300,2013-02-24 03:58:00
9:08 PM,33.8,24.8,70,29.61,10.0,Variable,4.6,-,N/A,,Partly Cloudy,0,2013-02-24 04:08:00
9:17 PM,35.6,19.4,52,29.61,9.0,SSW,13.8,-,N/A,Rain,Light Rain,210,2013-02-24 04:17:00
9:27 PM,35.6,21.2,56,29.60,4.0,ESE,10.4,35.7,N/A,Snow,Light Snow,110,2013-02-24 04:27:00
9:32 PM,35.6,23.0,60,29.60,6.0,SSE,8.1,17.3,N/A,Snow,Light Snow,150,2013-02-24 04:32:00
9:37 PM,35.6,21.2,56,29.59,10.0,ESE,13.8,-,N/A,,Scattered Clouds,110,2013-02-24 04:37:00
9:58 PM,35.8,20.8,55,29.62,10.0,NW,8.1,-,0.00,,Partly Cloudy,320,2013-02-24 04:58:00
10:25 PM,32.0,21.2,64,29.61,10.0,NNW,12.7,-,N/A,,Clear,330,2013-02-24 05:25:00
10:58 PM,28.2,19.8,71,29.64,10.0,North,15.0,-,N/A,,Clear,350,2013-02-24 05:58:00
11:58 PM,27.7,20.8,75,29.64,10.0,NNW,19.6,25.3,N/A,,Partly Cloudy,340,2013-02-24 06:58:00